PEGASUS DEB, 24378

Orbit data source: Space-Track

PEGASUS DEB, 24378 is space debris in LEO originally from a launch on Thu, 19 May 1994 UTC launched from the Air Force Western Test Range (AFWTR). Debris objects in space refer to the collection of defunct objects orbiting the Earth. Examples of debris include non-operational satellites, rocket bodies, and fragments generated from explosions, collisions, or faulty payload assembly.

Loading next visibility...
Identifier
24378, 1994-029QF
Orbit
LEO
Country
Flag of USUS
Related business
Manufacturer
Unknown
Mission
Spacecraft
Bus & Motor
Unknown
Mass
Unknown
Launch date (UTC)
1994-05-19 (32 years ago)
Launch vehicle
Unknown
Launch site
Air Force Western Test Range (AFWTR)
Object type
Payload
Rocket body
Debris
Shape & HBR
Unknown shape, 0.1 m
Radar Cross Section
Small (<0.1 m²)

Expand to show TLE details & history
Last TLE update: 18 hours ago

TLE from 18 hours ago
0 PEGASUS DEB
1 24378U 94029QF  26121.22713848  .00000647  00000-0  11159-3 0  9992
2 24378  82.0279 294.7828 0159690 348.9869  10.7847 14.59063120691814
Epoch: 2026-05-01T05:27Z
TLE epoch observation values (Epoch: 2026-05-01T05:27:04.764Z)
Latitude
-0.00006°
Longitude
-6.14948°
Altitude
588.259 km
Speed
7.625 km/s
True Right ascension
19h 39m 07s
True Declination
0° 00' 00"
Sunlit
Object was in daylight at epoch
Visualization orbit readout
Latitude
Unknown
Longitude
Unknown
Altitude
Unknown
Speed
Unknown
Apparent Right ascension
Unknown
Apparent Declination
Unknown
Sunlit
N/A
Visualization observer readout
Local Sidereal Time
06:46:46
Azimuth
Unknown
Elevation
Unknown
Doppler factor
Unknown
Orbital elements
Apogee altitude
806.195 km
Perigee altitude
580.348 km
Semi-major axis
7,071.409 km
Eccentricity
0.01597
Inclination
82.0279°
RAAN
294.7828°
Arg. of periapsis
348.9869°
True anomaly
11.13395°
Mean anomaly
10.7847°
Eccentric anomaly
10.95863°
Mean motion
3.64993 °/min
Orbital period
98.63 mins
BSTAR
0.00011159
Loading maneuver chart data...
Computing Atmospheric mass density...

Documentation

Showing up to 5 results
|